Regional Weather Roundup
Issued by NWS

Home | Current Version | Previous Version | Text Only | Print | Product List | Glossary On
Versions: 1 2 3 4 5 6 7 8 9 10 11 12 13 14 15 16 17 18 19 20 21 22 23 24 25 26 27 28 29 30 31 32 33 34 35 36 37 38 39 40 41 42 43 44 45 46 47 48 49 50
000
ASUS42 KTBW 271210
RWRFL
FLORIDA REGIONAL WEATHER ROUNDUP
NATIONAL WEATHER SERVICE TAMPA BAY RUSKIN FL
700 AM EST TUE JAN 27 2015

NOTE: "FAIR" INDICATES FEW OR NO CLOUDS BELOW 12,000 FEET WITH NO
SIGNIFICANT WEATHER AND/OR OBSTRUCTIONS TO VISIBILITY.


FLZ001>010-012>015-112-114-115-271300-
PANHANDLE FLORIDA

CITY           SKY/WX    TMP DP  RH WIND       PRES   REMARKS
PENSACOLA      CLEAR     47  35  63 W10       30.01R WCI  42
PENSACOLA NAS  CLEAR     49  40  71 W7        30.02R
MILTON NAS     CLEAR     42  34  73 W8        30.01R WCI  37
CRESTVIEW      CLEAR     34  29  82 CALM      30.01R
VALPARAISO     PTCLDY    40  35  79 W8        30.00S WCI  35
MARY ESTHER    CLEAR     48  34  58 W6        30.00R WCI  45
TRI COUNTY     FAIR      34  33  96 CALM      30.00S
PANAMA CITY    FAIR      36  33  89 CALM      29.99S
TYNDALL AFB    CLEAR     46  39  76 N3        30.01S
APALACHICOLA   CLEAR     41  36  82 CALM      30.02R

STATION/POSITION SKY/WX   TEMP    WIND        PRES    WAVE   SWELL
                          AIR SEA DIR/SP/G            HT/PER HT/PER
                          (F)     (DEG/KT/KT) (MB)    (FT/S) (FT/S)
30.1N   87.6W              59 62  270/ 17/ 21 1016.1R   4/ 4   2/ 8
29.2N   88.2W              62 70  290/ 19/ 25 1018.1    5/ 7
28.7N   86.0W              63 70  300/ 17/ 21 1017.4R   5/ 6   2/ 8
PANAMA CITY BEAC           55 58  300/ 13/ 15 1015.6R
CAPE SAN BLAS    NOT AVBL
TOWER C                    55     310/ 10/ 11 1016.7R
28.5N   84.5W              62 68  300/ 16/ 19 1016.8R   5/ 8   3/ 8

$$
FLZ011-016>038-118-127-128-134-139-239-271300-
NORTH FLORIDA

CITY           SKY/WX    TMP DP  RH WIND       PRES   REMARKS
MARIANNA       CLEAR     38  35  89 SW3       29.98R
TALLAHASSEE    CLEAR     35  30  82 CALM      30.00R
PERRY          CLEAR     37  35  95 CALM      30.01R
CROSS CITY       N/A     35  32  88 CALM      30.01R
LAKE CITY      FAIR      34  34 100 SW7       29.98R WCI  28
GAINESVILLE    CLEAR     37  34  89 W7        30.00R WCI  32
MAYPORT NAS    CLEAR     42  35  76 W6        29.95R WCI  38
JACKSONVILLE   CLEAR     36  35  96 SW6       29.95R WCI  31
JAX NAS        CLEAR     42  33  70 SW9       29.97R WCI  37
JAX CRAIG      CLEAR     40  33  76 SW3       29.96R
JAX CECIL      CLEAR     36  32  87 CALM      29.97R
FERNANDINA BEA FAIR      41  36  81 SW6       29.93R WCI  37
ST AUGUSTINE   CLEAR     40  34  79 W5        29.99R WCI  37

STATION/POSITION SKY/WX   TEMP    WIND        PRES    WAVE   SWELL
                          AIR SEA DIR/SP/G            HT/PER HT/PER
                          (F)     (DEG/KT/KT) (MB)    (FT/S) (FT/S)
SHELL POINT                43     300/  6/  9   N/A
KEATON BEACH               51     290/ 15/ 17 1016.2R
CEDAR KEY                  47     350/  5/  7 1016.8R
FERNANDINA                 40 56  240/  7/  8 1013.0R
30.7N   81.3W                 58                N/A     2/ 3
MAYPORT                    42 57  260/  9/ 11   N/A
31.4N   80.9W              45 54  290/ 21/ 25 1011.9R   4/ 4
ST AUGUSTINE               41     260/  6/  8 1015.7R

$$
FLZ040-043>046-052-053-057-058-063-144-271300-
INTERIOR CENTRAL FLORIDA

CITY           SKY/WX    TMP DP  RH WIND       PRES   REMARKS
OCALA          CLEAR     36  32  87 SW6       30.01S WCI  31
THE VILLAGES     N/A     39  36  87 CALM      29.93S
LEESBURG       CLEAR     44  37  76 NW7       30.03R WCI  40
SANFORD        CLEAR     40  35  83 W7        30.02R WCI  35
ORLANDO EXEC   CLEAR     45  36  70 NW8       30.03R WCI  41
ORLANDO INTL   CLEAR     45  37  73 W7        30.04R WCI  41
KISSIMMEE      CLEAR     43  39  87 W7        30.04  WCI  39
WINTER HAVEN   CLEAR     45  36  70 NW9       30.05R WCI  40
LAKELAND       CLEAR     41  37  87 CALM      30.05R
BARTOW         FAIR      43  34  70 NW5       30.06R WCI  40
OKEECHOBEE     CLEAR     41  37  87 NW6       30.04R WCI  37

$$
FLZ041-047-054-059-064-141-147-271300-
EAST CENTRAL FLORIDA

CITY           SKY/WX    TMP DP  RH WIND       PRES   REMARKS
ORMOND BEACH   CLEAR     39  34  81 W3        30.00
DAYTONA BEACH  PTCLDY    42  34  73 W7        30.01R WCI  38
DELAND         SUNNY    N/A N/A N/A SW3       30.01F
NEW SMYRNA BEA CLEAR     41  34  75 W7          N/A  WCI  36
JFK SPACE CTR  CLEAR     43  37  80 NW8       30.01R WCI  38
CAPE CANAVERAL CLEAR     44  37  76 W13       30.01R WCI  38
PATRICK AFB    CLEAR     47  36  67 NW18      30.02R WCI  39
MELBOURNE      CLEAR     43  37  79 W9        30.02R WCI  38
VERO BEACH     CLEAR     42  39  89 W8        30.02R WCI  37
FT PIERCE      CLEAR     42  39  89 W7        30.02R WCI  38
STUART         CLEAR     46  41  81 W10       30.03R WCI  41

STATION/POSITION SKY/WX   TEMP    WIND        PRES    WAVE   SWELL
                          AIR SEA DIR/SP/G            HT/PER HT/PER
                          (F)     (DEG/KT/KT) (MB)    (FT/S) (FT/S)
28.5N   80.2W              52 69  300/ 21/ 27 1014.6R
28.9N   78.5W              61 76  300/ 25/ 35 1011.8R  12/10   7/10
TRIDENT PIER               46 63  290/ 12/ 16 1015.9R
28.4N   80.5W                 63                N/A     2/ 7
27.6N   80.2W                 73                N/A     4/ 9

$$
FLZ050-056-061-142-242-148-248-149-249-151-251-155-255-
160-260-271300-
WEST CENTRAL FLORIDA

CITY           SKY/WX    TMP DP  RH WIND       PRES   REMARKS
CRYSTAL RIVER  FAIR      43  34  70 CALM      30.03S
INVERNESS      FAIR      36  34  93 CALM      30.04S
BROOKSVILLE    CLEAR     36  34  92 CALM      30.05R
ZEPHYRHILLS    FAIR      36  36 100 CALM      30.06R
CLEARWATER     CLEAR     49  42  77 NW3       30.05R
TAMPA INTL     CLEAR     48  42  80 E3        30.05R
TAMPA EXEC     CLEAR     43  41  93 CALM      30.06R
PLANT CITY       N/A    N/A N/A N/A MISG        N/A
MACDILL AFB    CLEAR     50  45  81 N6        30.05R
PETER O KNIGHT CLEAR     48  45  87 CALM      30.05R
ST PETERSBURG  CLEAR     54  42  64 NW3       30.03R
SARASOTA       CLEAR     46  42  86 CALM      30.04R
VENICE         FAIR      48  46  93 NE3       30.06R

STATION/POSITION SKY/WX   TEMP    WIND        PRES    WAVE   SWELL
                          AIR SEA DIR/SP/G            HT/PER HT/PER
                          (F)     (DEG/KT/KT) (MB)    (FT/S) (FT/S)
CEDAR KEY                  47     350/  5/  7 1016.8R
28.5N   84.5W              62 68  300/ 16/ 19 1016.8R   5/ 8   3/ 8
27.3N   84.3W                 72                N/A     7/ 8   2/11
CLEARWATER BEACH           57 61  320/ 15/ 18 1017.0R
MIDDLE TAMPA BAY           55     350/  9/ 10 1017.6R
VENICE                     53 64   20/  6/  7 1017.2R

$$
FLZ066-069-070-075>078-162-262-165-265-271300-
SOUTHWEST FLORIDA AND KEYS

CITY           SKY/WX    TMP DP  RH WIND       PRES   REMARKS
PUNTA GORDA    CLEAR     46  44  93 N3        30.06R
FT MYERS       CLEAR     52  45  77 N9        30.04R
SOUTHWEST INTL CLEAR     51  46  83 N6        30.05R
NAPLES         PTCLDY    56  49  77 N8        30.03R
MARCO ISLAND   MOSUNNY   54  46  76 N7        30.03R
IMMOKALEE      SUNNY     45 N/A N/A CALM      30.05R
MARATHON       PTCLDY    65  53  65 NW12G21   30.03R
KEY WEST NAS   PTCLDY    65  51  60 NW12      30.04R
KEY WEST INTL  CLEAR     65  52  62 NW13      30.04R

STATION/POSITION SKY/WX   TEMP    WIND        PRES    WAVE   SWELL
                          AIR SEA DIR/SP/G            HT/PER HT/PER
                          (F)     (DEG/KT/KT) (MB)    (FT/S) (FT/S)
VENICE                     53 64   20/  6/  7 1017.2R
NAPLES                     57 73   30/  6/  9 1017.4R
26.0N   85.6W              66 73  320/ 17/ 21 1018.1R   7/ 8   3/15
DRY TORTUGAS               67     320/ 17/ 19 1016.7R
NW FL BAY                  66     320/ 16/ 19 1016.0R
SAND KEY                   67     320/ 17/ 21 1017.2R
SOMBRERO KEY               66     330/ 19/ 20 1017.5R
LONG KEY                   65 67  330/ 16/ 18 1016.9R
MOLASSES REEF              61 73  350/ 16/ 18 1016.5R

$$
FLZ067-068-071>074-168-172>174-271300-
SOUTHEAST FLORIDA

CITY           SKY/WX    TMP DP  RH WIND       PRES   REMARKS
W PALM BEACH   PTCLDY    51  46  83 NW9       30.02R
FT LAUDER-EXEC CLEAR     52  48  86 W9        30.02R
FT LAUDERDALE  PTCLDY    53  47  79 NW9       30.01R
POMPANO BEACH  CLEAR     54  46  74 NW14      30.02R
PEMBROKE PINES CLEAR     53  47  79 NW9       30.03R
OPA LOCKA      CLEAR     54  46  74 NW12      30.02R
MIAMI          PTCLDY    56  47  71 NW5       30.03R
WEST KENDALL   CLEAR     53  48  83 NW7       30.03R
HOMESTEAD      CLEAR     52  48  85 NW6       30.03R

STATION/POSITION SKY/WX   TEMP    WIND        PRES    WAVE   SWELL
                          AIR SEA DIR/SP/G            HT/PER HT/PER
                          (F)     (DEG/KT/KT) (MB)    (FT/S) (FT/S)
PORT EVERGLADES            55     290/ 14/ 18 1016.0
VIRGINIA KEY               57 68  320/  9/ 12 1016.8R
LAKE WORTH                 52 72  310/  8/ 10 1016.3R



USA.gov is the U.S. government's official web portal to all federal, state and local government web resources and services.